Location: Brahman Valley
(40.6513°N, 111.8855°W)
Time: 07:52:38
(UTC+00:00)

Tiros 1 despin weight - Pass Details

Date: 21 May 2021
Orbit: 594 x 641 km, 48.2° (Epoch: 22 June)

Event Time Altitude Azimuth Distance (km) Brightness Sun altitude
Rises 03:19:42 0° 285° (WNW) 2,918 ? -6.8°
Reaches altitude 10° 03:22:14 10° 295° (WNW) 2,017 ? -7.2°
Maximum altitude 03:26:24 32° 359° (N) 1,100 ? -7.9°
Drops below altitude 10° 03:30:37 10° 63° (ENE) 2,031 ? -8.5°
Sets 03:33:10 0° 73° (ENE) 2,942 ? -8.9°
